Morogoro, Tanzania

11:13 AM EAT on August 22, 2017 (GMT +0300)
Morogoro

Weather History for HTMG - September, 2013

Change the Weather History Date:

Sunday, September 15, 2013

  Actual Average Record
Temperature  
Mean Temperature 74 °F -  
Max Temperature 87 °F - - ()
Min Temperature 60 °F - - ()
Cooling Degree Days 8    
Growing Degree Days 24 (Base 50)    
Moisture  
Dew Point 60 °F    
Average Humidity 60    
Maximum Humidity 94    
Minimum Humidity 27    
Precipitation  
Precipitation 0.00 in - - ()
Sea Level Pressure  
Sea Level Pressure 30.02 in    
Wind  
Wind Speed 3 mph ()    
Max Wind Speed 21 mph    
Max Gust Speed -    
Visibility 9.4 miles    
Events      
T = Trace of Precipitation, MM = Missing Value Source: Averaged Metar Reports

Daily Weather History Graph

Daily Weather History Graph

Search for Another Location

Airport or City:

Trip Planner

Search our weather history database for the weather conditions in past years. The results will help you decide how hot, cold, wet, or windy it might be!

Date:

Astronomy

Sep. 15, 2013 Rise Set
Actual Time 6:22 AM EAT 6:26 PM EAT
Civil Twilight 6:01 AM EAT 6:47 PM EAT
Nautical Twilight 5:37 AM EAT 7:11 PM EAT
Astronomical Twilight 5:13 AM EAT 7:35 PM EAT
Moon 2:47 PM EAT (9/15) 2:34 AM EAT (9/15)
Length of Visible Light 12h 45m
Length of Day
12h 03m
Waxing Gibbous, 79% of the Moon is Illuminated
Sep 15
Waxing Gibbous
Sep 19
Full
Sep 27
Last Quarter
Oct 5
New
Oct 12
First Quarter

Hourly Weather History & Observations

Time (EAT) Temp. Heat Index Dew Point Humidity Pressure Visibility Wind Dir Wind Speed Gust Speed Precip Events Conditions
12:00 AM 69 °F - 63 °F 76%  in 19 mi Calm Calm - -  
12:00 AM 69.8 °F - 62.6 °F 78% 30.06 in 6.2 mi Calm Calm - N/A   Clear
3:00 AM 64.4 °F - 60.8 °F 88% 30.04 in 6.2 mi Calm Calm - N/A   Clear
4:00 AM 64.4 °F - 60.8 °F 88% 30.04 in 6.2 mi Calm Calm - N/A   Clear
5:00 AM 62.6 °F - 59.0 °F 88% 30.04 in 6.2 mi Calm Calm - N/A   Clear
6:00 AM 60 °F - 58 °F 93%  in 19 mi Calm Calm - -   Scattered Clouds
6:00 AM 60.8 °F - 59.0 °F 94% 30.06 in 6.2 mi Calm Calm - N/A   Partly Cloudy
8:00 AM 66.2 °F - 60.8 °F 83% 30.06 in 6.2 mi Calm Calm - N/A   Partly Cloudy
9:00 AM 70 °F - 61 °F 65%  in 19 mi Calm Calm - -   Partly Cloudy
9:00 AM 69.8 °F - 60.8 °F 73% 30.06 in 6.2 mi Calm Calm - N/A   Scattered Clouds
10:00 AM 77.0 °F - 60.8 °F 57% 30.09 in 6.2 mi Calm Calm - N/A   Scattered Clouds
11:00 AM 78.8 °F - 59.0 °F 51% 30.06 in 6.2 mi Calm Calm - N/A   Scattered Clouds
12:00 PM 82 °F - 59 °F 36%  in 19 mi SE 5.8 mph - -   Partly Cloudy
12:00 PM 82.4 °F 82.5 °F 59.0 °F 45% 30.04 in 6.2 mi SE 5.8 mph - N/A   Scattered Clouds
1:00 PM 84.2 °F 83.0 °F 55.4 °F 37% 29.98 in 6.2 mi ESE 5.8 mph - N/A   Scattered Clouds
2:00 PM 86.0 °F 84.9 °F 57.2 °F 37% 29.98 in 6.2 mi Calm Calm - N/A   Scattered Clouds
3:00 PM 87 °F - 58 °F 27%  in 19 mi SE 4.6 mph - -   Partly Cloudy
3:00 PM 87.8 °F 86.5 °F 57.2 °F 35% 29.95 in 6.2 mi SE 4.6 mph - N/A   Scattered Clouds
4:00 PM 87.8 °F 86.5 °F 57.2 °F 35% 29.95 in 6.2 mi SSE 5.8 mph - N/A   Scattered Clouds
5:00 PM 86.0 °F 84.9 °F 57.2 °F 37% 29.95 in 6.2 mi SSE 6.9 mph - N/A   Scattered Clouds
6:00 PM 84 °F - 56 °F 28%  in 19 mi ESE 9.2 mph - -   Scattered Clouds
6:00 PM 84.2 °F 83.5 °F 57.2 °F 40% 29.95 in 6.2 mi ESE 9.2 mph - N/A   Partly Cloudy
7:00 PM 80.6 °F 81.1 °F 59.0 °F 48% 29.98 in 6.2 mi NE 13.8 mph - N/A   Partly Cloudy
8:00 PM 77.0 °F - 62.6 °F 61% 29.98 in 6.2 mi NE 16.1 mph - N/A   Partly Cloudy
9:00 PM 75 °F - 65 °F 63%  in 19 mi NE 17.3 mph - -   Scattered Clouds
9:00 PM - - 64.4 °F N/A% 30.04 in 6.2 mi NE 17.3 mph - N/A   Partly Cloudy
10:00 PM 73.4 °F - 64.4 °F 73% 30.01 in 6.2 mi NE 20.7 mph - N/A   Partly Cloudy
11:00 PM 75.2 °F - 66.2 °F 73% 30.01 in 6.2 mi NE 18.4 mph - N/A   Partly Cloudy